ONEWEB-0618 (55159 NORAD) Tracking and Keplerian Element Data

This shows tracking and keplerian element data for the satellite.

Feedback or suggestion? Click here.




ElementValue
Catalog55159
NameONEWEB-0618
Epoch Orbit130
Epoch Day13.91667824
Epoch Year2023
RAAN284.1443
Inclination86.5121
Eccentricity0.0010847
Argument of Perigee199.954
Mean Anonmoly67.3674
Mean Motion14.91101016
Decay Rate-0.00048269
L11 55159U 23004V 23013.91667824 -.00048269 00000+0 -49098-2 0 9998
L22 55159 86.5121 284.1443 0010847 199.9540 67.3674 14.91101016 1304



Live tracking and technical data element details for ONEWEB-0618 (NORAD 55159). ONEWEB-0618 can be tracked NOW for your location showing map with azimuth and elevation plus other details from your city location.







IsCatalogInMostPopularTable: catalog: 55159, numindb: 3
Update: records affected: 1



GetName: 55159 ONEWEB-0618

Hit Count: updated at: Tue, 07 Feb 2023 14:26:42 GMT